When you browse on this site, cookies collect data to enhance your experience and personalize the content and advertising you see.
Visit our Privacy Policy to learn more. By continuing to use the site, you agree to this use of cookies and data.
  • In Czech Republic
  • List of Countries
  • For 7 days
  • Water Temperature
  • Weather Map
  • Weather Widgets
  • user-avatar
    Login

    Hourly Weather Devyaternya

    Today, 1 April, Wednesday

    Time Temperature Precipitation Wind Pressure Humidity
    00:00 +2°C° 0 mm 3 mps 742 mmHg 88%
    01:00 +2°C° 0 mm 3 mps 741 mmHg 88%
    02:00 +2°C° 0 mm 3 mps 741 mmHg 88%
    03:00 +3°C° 0 mm 2 mps 741 mmHg 88%
    04:00 +3°C° 0 mm 2 mps 740 mmHg 94%
    05:00 +2°C° 0.6 mm 3 mps 740 mmHg 95%
    06:00 +2°C° 0.6 mm 3 mps 739 mmHg 96%
    07:00 +2°C° 0.6 mm 3 mps 739 mmHg 97%
    08:00 +3°C° 0.2 mm 4 mps 739 mmHg 97%
    09:00 +4°C° 0.2 mm 4 mps 739 mmHg 96%
    10:00 +5°C° 0 mm 4 mps 740 mmHg 95%
    11:00 +3°C° 0 mm 5 mps 739 mmHg 89%
    12:00 +2°C° 0 mm 5 mps 739 mmHg 84%
    13:00 +1°C° 0 mm 6 mps 739 mmHg 79%
    14:00 +1°C° 0 mm 6 mps 740 mmHg 74%
    15:00 +1°C° 0 mm 6 mps 740 mmHg 69%
    16:00 +1°C° 0 mm 6 mps 741 mmHg 64%
    17:00 0°C° 0 mm 5 mps 741 mmHg 66%
    18:00 -1°C° 0 mm 4 mps 741 mmHg 68%
    19:00 -1°C° 0 mm 3 mps 741 mmHg 70%
    20:00 -2°C° 0 mm 3 mps 742 mmHg 71%
    21:00 -2°C° 0 mm 3 mps 742 mmHg 73%
    22:00 -4°C° 0 mm 3 mps 743 mmHg 74%
    23:00 -4°C° 0 mm 3 mps 743 mmHg 74%

    Tomorrow, 2 April, Thursday

    Time Temperature Precipitation Wind Pressure Humidity
    00:00 -4°C° 0 mm 3 mps 742 mmHg 74%
    01:00 -4°C° 0 mm 3 mps 742 mmHg 73%
    02:00 -4°C° 0 mm 3 mps 742 mmHg 72%
    03:00 -4°C° 0 mm 3 mps 743 mmHg 72%
    04:00 -4°C° 0 mm 3 mps 743 mmHg 71%
    05:00 -4°C° 0 mm 4 mps 743 mmHg 67%
    06:00 -5°C° 0 mm 5 mps 742 mmHg 64%
    07:00 -5°C° 0 mm 5 mps 742 mmHg 60%
    08:00 -4°C° 0 mm 6 mps 742 mmHg 55%
    09:00 -3°C° 0 mm 7 mps 743 mmHg 50%
    10:00 -2°C° 0 mm 8 mps 743 mmHg 45%
    11:00 -1°C° 0 mm 8 mps 743 mmHg 50%
    12:00 -1°C° 0 mm 8 mps 743 mmHg 54%
    13:00 0°C° 0 mm 8 mps 743 mmHg 59%
    14:00 0°C° 0 mm 8 mps 743 mmHg 62%
    15:00 0°C° 0 mm 8 mps 743 mmHg 66%
    16:00 0°C° 0 mm 8 mps 743 mmHg 70%
    17:00 -1°C° 0 mm 7 mps 744 mmHg 72%
    18:00 -1°C° 0 mm 6 mps 744 mmHg 74%
    19:00 -1°C° 0 mm 5 mps 744 mmHg 77%
    20:00 -1°C° 0 mm 5 mps 745 mmHg 78%
    21:00 -1°C° 0 mm 5 mps 746 mmHg 79%
    22:00 -2°C° 0 mm 4 mps 746 mmHg 81%
    23:00 -2°C° 0 mm 5 mps 746 mmHg 81%

    Day after tomorrow, 3 April, Friday

    Time Temperature Precipitation Wind Pressure Humidity
    00:00 -2°C° 0 mm 5 mps 747 mmHg 82%
    01:00 -2°C° 0 mm 5 mps 747 mmHg 82%
    02:00 -2°C° 0 mm 4 mps 747 mmHg 83%
    03:00 -2°C° 0 mm 4 mps 748 mmHg 83%
    04:00 -2°C° 0 mm 4 mps 748 mmHg 84%
    05:00 -2°C° 0 mm 4 mps 748 mmHg 85%
    06:00 -1°C° 0 mm 4 mps 748 mmHg 86%
    07:00 -1°C° 0 mm 4 mps 749 mmHg 86%
    08:00 0°C° 0 mm 5 mps 749 mmHg 81%
    09:00 +1°C° 0 mm 5 mps 750 mmHg 75%
    10:00 +2°C° 0 mm 6 mps 750 mmHg 70%
    11:00 +3°C° 0 mm 6 mps 750 mmHg 67%
    12:00 +3°C° 0 mm 6 mps 750 mmHg 64%
    13:00 +4°C° 0 mm 6 mps 750 mmHg 61%
    14:00 +4°C° 0.1 mm 6 mps 751 mmHg 60%
    15:00 +5°C° 0.1 mm 6 mps 751 mmHg 58%
    16:00 +5°C° 0.1 mm 6 mps 751 mmHg 57%
    17:00 +5°C° 0 mm 5 mps 751 mmHg 62%
    18:00 +4°C° 0 mm 4 mps 751 mmHg 66%
    19:00 +4°C° 0 mm 3 mps 751 mmHg 70%
    20:00 +3°C° 0 mm 4 mps 751 mmHg 72%
    21:00 +1°C° 0 mm 4 mps 752 mmHg 75%
    22:00 +1°C° 0 mm 4 mps 752 mmHg 77%
    23:00 +1°C° 0 mm 4 mps 752 mmHg 79%

    4 April, Saturday

    Time Temperature Precipitation Wind Pressure Humidity
    00:00 0°C° 0 mm 4 mps 752 mmHg 81%
    01:00 0°C° 0 mm 4 mps 752 mmHg 83%
    02:00 0°C° 0 mm 4 mps 752 mmHg 83%
    03:00 0°C° 0 mm 4 mps 751 mmHg 82%
    04:00 0°C° 0 mm 4 mps 751 mmHg 82%
    05:00 0°C° 0 mm 4 mps 751 mmHg 81%
    06:00 0°C° 0 mm 4 mps 751 mmHg 81%
    07:00 0°C° 0 mm 4 mps 751 mmHg 80%
    08:00 +1°C° 0 mm 5 mps 751 mmHg 73%
    09:00 +3°C° 0 mm 5 mps 751 mmHg 67%
    10:00 +5°C° 0 mm 6 mps 751 mmHg 60%
    11:00 +7°C° 0 mm 6 mps 751 mmHg 57%
    12:00 +8°C° 0 mm 6 mps 751 mmHg 54%
    13:00 +8°C° 0 mm 6 mps 750 mmHg 51%
    14:00 +9°C° 0 mm 6 mps 750 mmHg 50%
    15:00 +9°C° 0 mm 6 mps 750 mmHg 50%
    16:00 +9°C° 0 mm 5 mps 750 mmHg 50%
    17:00 +8°C° 0 mm 5 mps 750 mmHg 54%
    18:00 +8°C° 0 mm 4 mps 749 mmHg 58%
    19:00 +8°C° 0 mm 3 mps 749 mmHg 63%
    20:00 +7°C° 0 mm 3 mps 750 mmHg 66%
    21:00 +5°C° 0 mm 3 mps 750 mmHg 68%
    22:00 +5°C° 0 mm 3 mps 750 mmHg 71%
    23:00 +4°C° 0 mm 3 mps 750 mmHg 75%

    5 April, Sunday

    Time Temperature Precipitation Wind Pressure Humidity
    00:00 +5°C° 0 mm 2 mps 750 mmHg 79%
    01:00 +4°C° 0 mm 2 mps 750 mmHg 83%
    02:00 +4°C° 0 mm 2 mps 750 mmHg 85%
    03:00 +3°C° 0 mm 2 mps 750 mmHg 87%
    04:00 +3°C° 0 mm 2 mps 750 mmHg 89%
    05:00 +3°C° 0 mm 2 mps 751 mmHg 90%
    06:00 +2°C° 0 mm 2 mps 751 mmHg 90%
    07:00 +2°C° 0 mm 2 mps 751 mmHg 91%
    08:00 +2°C° 0.1 mm 3 mps 751 mmHg 83%
    09:00 +4°C° 0.1 mm 3 mps 752 mmHg 75%
    10:00 +5°C° 0.1 mm 4 mps 752 mmHg 67%
    11:00 +5°C° 0 mm 3 mps 752 mmHg 62%
    12:00 +7°C° 0 mm 3 mps 752 mmHg 57%
    13:00 +7°C° 0 mm 3 mps 752 mmHg 52%
    14:00 +7°C° 0 mm 2 mps 752 mmHg 49%
    15:00 +7°C° 0 mm 2 mps 752 mmHg 45%
    16:00 +8°C° 0 mm 1 mps 752 mmHg 42%
    17:00 +8°C° 0 mm 1 mps 751 mmHg 46%
    18:00 +6°C° 0 mm 2 mps 751 mmHg 50%
    19:00 +6°C° 0 mm 2 mps 751 mmHg 54%
    20:00 +5°C° 0 mm 2 mps 751 mmHg 58%
    21:00 +3°C° 0 mm 3 mps 751 mmHg 62%
    22:00 +3°C° 0 mm 3 mps 750 mmHg 66%
    23:00 +2°C° 0.2 mm 3 mps 750 mmHg 74%

    6 April, Monday

    Time Temperature Precipitation Wind Pressure Humidity
    00:00 +2°C° 0.2 mm 3 mps 749 mmHg 82%
    01:00 +1°C° 0.2 mm 3 mps 749 mmHg 90%
    02:00 0°C° 1.4 mm 4 mps 748 mmHg 92%
    03:00 -1°C° 1.4 mm 5 mps 747 mmHg 94%
    04:00 -2°C° 1.4 mm 6 mps 747 mmHg 96%
    05:00 -2°C° 1.2 mm 7 mps 747 mmHg 96%
    06:00 -3°C° 1.2 mm 7 mps 746 mmHg 96%
    07:00 -4°C° 1.2 mm 8 mps 746 mmHg 96%
    08:00 -4°C° 0.6 mm 8 mps 746 mmHg 95%
    09:00 -4°C° 0.6 mm 9 mps 746 mmHg 94%
    10:00 -4°C° 0.6 mm 9 mps 746 mmHg 93%
    11:00 -4°C° 0.2 mm 9 mps 746 mmHg 94%
    12:00 -3°C° 0.2 mm 9 mps 746 mmHg 94%
    13:00 -3°C° 0.2 mm 9 mps 746 mmHg 94%
    14:00 -3°C° 0.4 mm 9 mps 746 mmHg 94%
    15:00 -4°C° 0.4 mm 9 mps 746 mmHg 94%
    16:00 -4°C° 0.4 mm 9 mps 746 mmHg 94%
    17:00 -4°C° 0.5 mm 9 mps 746 mmHg 94%
    18:00 -4°C° 0.5 mm 9 mps 746 mmHg 94%
    19:00 -4°C° 0.5 mm 10 mps 746 mmHg 94%
    20:00 -5°C° 0.8 mm 10 mps 747 mmHg 94%
    21:00 -5°C° 0.8 mm 9 mps 747 mmHg 95%
    22:00 -5°C° 0.8 mm 9 mps 747 mmHg 95%
    23:00 -5°C° 0.9 mm 9 mps 747 mmHg 95%
    Show more